Location: Oshawa
(43.9000°N, 78.8670°W)
Time: 02:30:45
(UTC-04:00)

Cosmos 1408 Rocket - Visible Passes

Search period start: 26 June 2016 00:00
Search period end: 06 July 2016 00:00
Orbit: 601 x 632 km, 82.6° (Epoch: 25 June)

Date Brightness Start Highest point End Pass type
(mag) Time Alt. Az. Time Alt. Az. Time Alt. Az.
26 Jun 6.6 22:20:35 10° W 22:22:51 14° WNW 22:25:07 10° NW visible
29 Jun 6.2 21:30:51 10° SW 21:34:25 24° WNW 21:37:58 10° NNW visible
30 Jun 6.7 21:48:53 10° W 21:51:12 14° WNW 21:53:31 10° NW visible
